Location: Central Falls
(41.8900°N, 71.3929°W)
Time: 17:01:09
(UTC+00:00)

Vanguard 1 Rocket - Pass Details

Date: 05 December 2023
Orbit: 654 x 4218 km, 34.3° (Epoch: 25 February)

Event Time Altitude Azimuth Distance (km) Brightness Sun altitude
Rises 06:42:29 0° 201° (SSW) 8,391 - -57.2°
Reaches altitude 10° 06:49:58 10° 191° (S) 7,412 - -55.9°
Exits shadow 06:54:53 16° 182° (S) 6,785 11.6 -55.1°
Maximum altitude 07:08:42 28° 144° (SE) 5,405 11.2 -52.7°
Drops below altitude 10° 07:22:42 10° 94° (E) 5,597 11.8 -50.2°
Sets 07:27:07 0° 83° (E) 6,125 12.3 -49.4°
